FW0403 Weather Reports


Display with metric or nautical units.
time (UTC)temp
F
wind
direction
speed
MPH
gust
MPH
rain 1hr
in
rain 24hr
in
rain mn
in
humidity
%
barometer
mb
20260507151753 69 15 12.0 20.0 0.00 0.01 0.01 83 1014.0
20260507151240 69 50 11.0 20.0 0.00 0.01 0.01 83 1013.9
20260507150740 69 11 10.0 20.0 0.00 0.01 0.01 83 1014.0
20260507150219 69 340 12.0 23.0 0.00 0.01 0.01 83 1013.9
20260507145659 69 26 13.0 23.0 0.00 0.01 0.01 83 1013.9
20260507144504 69 44 12.0 21.0 0.00 0.01 0.01 83 1014.0
20260507143348 69 42 10.0 21.0 0.00 0.01 0.01 83 1014.0
20260507142212 70 44 11.0 21.0 0.00 0.01 0.01 83 1013.8
20260507141029 70 64 11.0 20.0 0.00 0.01 0.01 83 1013.9
20260507140509 70 62 10.0 20.0 0.00 0.01 0.01 83 1013.9
20260507135949 70 26 10.0 20.0 0.00 0.01 0.01 83 1014.0
20260507135446 70 48 11.0 20.0 0.00 0.01 0.01 83 1013.9
20260507134938 70 357 12.0 20.0 0.00 0.01 0.01 84 1013.9
20260507134434 70 60 12.0 20.0 0.00 0.01 0.01 84 1013.9
20260507133940 70 2 11.0 18.0 0.00 0.01 0.01 84 1013.9
20260507133437 70 23 10.0 16.0 0.00 0.01 0.01 84 1014.0
20260507132919 70 7 9.0 16.0 0.00 0.01 0.01 84 1013.8
20260507132402 70 47 8.0 16.0 0.00 0.01 0.01 84 1013.9
20260507131859 70 36 7.0 15.0 0.00 0.01 0.01 84 1013.7
20260507130735 70 11 6.0 14.0 0.00 0.01 0.01 85 1013.8
20260507130216 70 53 6.0 14.0 0.00 0.01 0.01 85 1013.9
20260507125654 70 11 8.0 14.0 0.00 0.01 0.01 85 1013.7
20260507125139 70 46 8.0 14.0 0.00 0.01 0.01 85 1013.6
20260507124829 70 20 7.0 16.0 0.00 0.01 0.01 85 1013.5
20260507124318 70 346 6.0 16.0 0.00 0.01 0.01 85 1013.6
20260507123822 70 40 7.0 16.0 0.00 0.01 0.01 85 1013.3
20260507123324 70 57 8.0 16.0 0.00 0.01 0.01 85 1013.4
20260507122805 71 51 7.0 13.0 0.00 0.01 0.01 85 1013.2
20260507122244 71 42 7.0 13.0 0.00 0.01 0.01 85 1012.9
20260507121728 71 30 6.0 13.0 0.00 0.01 0.01 85 1012.9
20260507120607 71 34 7.0 17.0 0.00 0.01 0.01 85 1012.7
20260507120110 71 47 6.0 17.0 0.00 0.01 0.01 85 1012.7
20260507115605 71 44 5.0 18.0 0.00 0.01 0.01 85 1012.7
20260507115056 71 11 9.0 18.0 0.00 0.01 0.01 85 1012.5
20260507114553 71 46 10.0 18.0 0.00 0.01 0.01 85 1012.6
20260507114037 71 30 10.0 18.0 0.00 0.01 0.01 85 1012.5
20260507113524 71 30 10.0 16.0 0.00 0.01 0.01 85 1012.6
20260507113014 71 32 10.0 16.0 0.00 0.01 0.01 85 1012.4
20260507112516 71 28 10.0 20.0 0.00 0.01 0.01 85 1012.4
20260507111958 71 31 11.0 20.0 0.00 0.01 0.01 85 1012.3
20260507111507 71 25 11.0 20.0 0.00 0.01 0.01 85 1012.3
20260507110952 72 2 10.0 20.0 0.00 0.01 0.01 86 1012.2
20260507110448 72 331 9.0 18.0 0.00 0.01 0.01 86 1012.2
20260507105933 72 26 10.0 18.0 0.00 0.01 0.01 86 1012.0
20260507105414 72 11 11.0 18.0 0.00 0.01 0.01 86 1012.0
20260507104854 72 20 10.0 18.0 0.00 0.01 0.01 86 1011.9
20260507104358 72 26 8.0 17.0 0.00 0.01 0.01 86 1011.8
20260507103852 72 42 9.0 15.0 0.00 0.01 0.01 86 1011.8
20260507103354 72 42 10.0 16.0 0.00 0.01 0.01 86 1011.6
20260507102236 72 34 9.0 18.0 0.00 0.01 0.01 86 1011.6
20260507101739 72 59 10.0 18.0 0.00 0.01 0.01 86 1011.6
20260507100558 72 12 11.0 18.0 0.00 0.01 0.01 86 1011.5
20260507100041 72 30 12.0 18.0 0.00 0.01 0.01 86 1011.5
20260507095547 72 352 12.0 18.0 0.00 0.01 0.01 86 1011.6
20260507095025 73 333 10.0 18.0 0.00 0.01 0.01 87 1011.5
20260507094506 73 336 11.0 19.0 0.00 0.01 0.01 87 1011.6
20260507093313 73 2 11.0 19.0 0.00 0.01 0.01 87 1011.5
20260507092812 73 357 0.0 19.0 0.00 0.01 0.01 87 1011.5
20260507091640 73 2 11.0 16.0 0.00 0.01 0.01 87 1011.1
20260507091127 73 20 11.0 16.0 0.00 0.01 0.01 87 1011.0
20260507090627 73 33 9.0 16.0 0.00 0.01 0.01 87 1011.0
20260507090108 73 340 8.0 13.0 0.00 0.01 0.01 87 1011.0
20260507085554 73 21 9.0 17.0 0.00 0.01 0.01 87 1010.9
20260507084406 73 17 9.0 17.0 0.00 0.01 0.01 87 1010.9
20260507083913 74 2 9.0 16.0 0.00 0.01 0.01 87 1010.9
20260507083359 74 28 9.0 15.0 0.00 0.01 0.01 87 1010.8
20260507082840 74 344 9.0 15.0 0.00 0.01 0.01 87 1010.8
20260507082336 74 28 9.0 16.0 0.00 0.01 0.01 87 1010.9
20260507081813 74 11 8.0 16.0 0.00 0.01 0.01 87 1010.9
20260507080621 74 2 9.0 15.0 0.00 0.01 0.01 87 1010.8
20260507080109 75 7 8.0 17.0 0.00 0.01 0.01 87 1010.9
20260507074322 75 2 9.0 17.0 0.00 0.01 0.01 87 1010.9
20260507073139 75 2 6.0 15.0 0.00 0.01 0.01 87 1010.9
20260507072630 75 357 6.0 13.0 0.00 0.01 0.01 87 1011.0
20260507071501 75 344 5.0 13.0 0.00 0.01 0.01 87 1011.1
20260507070351 76 327 6.0 11.0 0.00 0.01 0.01 87 1011.1
20260507065839 76 334 6.0 10.0 0.00 0.01 0.01 87 1011.0
20260507065324 76 357 6.0 11.0 0.00 0.01 0.01 87 1011.1
20260507064805 76 53 5.0 11.0 0.00 0.01 0.01 87 1011.0
20260507063039 77 357 5.0 11.0 0.00 0.00 0.00 87 1011.1
20260507062540 78 324 4.0 8.0 0.00 0.00 0.00 88 1011.0
20260507062037 79 345 2.0 8.0 0.00 0.00 0.00 88 1011.0
20260507061520 80 337 0.0 2.0 0.00 0.00 0.00 88 1011.0
20260507060345 80 340 0.0 1.0 0.00 0.00 0.00 88 1010.8
20260507055827 80 340 0.0 0.0 0.00 0.00 0.00 88 1010.9
20260507055315 80 340 0.0 1.0 0.00 0.00 0.00 88 1010.8
20260507054126 80 309 0.0 1.0 0.00 0.00 0.00 88 1010.9
20260507053018 80 315 0.0 0.0 0.00 0.00 0.00 88 1010.9
20260507052501 80 317 0.0 3.0 0.00 0.00 0.00 88 1010.9
20260507051950 80 281 0.0 2.0 0.00 0.00 0.00 88 1011.0
20260507051442 80 315 0.0 2.0 0.00 0.00 0.00 88 1010.9
20260507050313 80 299 0.0 3.0 0.00 0.00 0.00 88 1010.9
20260507045201 80 238 0.0 1.0 0.00 0.00 0.00 87 1011.0
20260507044646 80 221 0.0 1.0 0.00 0.00 0.00 87 1011.0
20260507044124 80 214 0.0 0.0 0.00 0.00 0.00 87 1011.0
20260507042948 80 198 1.0 4.0 0.00 0.00 0.00 87 1010.7
20260507042455 80 209 1.0 3.0 0.00 0.00 0.00 87 1010.8
20260507041955 80 217 0.0 2.0 0.00 0.00 0.00 87 1010.8
20260507041445 80 213 0.0 3.0 0.00 0.00 0.00 87 1010.8
20260507040929 80 214 0.0 3.0 0.00 0.00 0.00 87 1010.7
20260507040435 80 211 0.0 6.0 0.00 0.00 0.00 87 1010.7
20260507035915 80 190 2.0 6.0 0.00 0.00 0.00 87 1010.6
20260507034751 80 191 4.0 6.0 0.00 0.00 0.00 87 1010.2
20260507034253 80 198 3.0 9.0 0.00 0.00 0.00 87 1010.0
20260507033747 80 190 4.0 9.0 0.00 0.00 0.00 87 1010.1
20260507032623 80 170 4.0 10.0 0.00 0.00 0.00 87 1009.7
20260507031427 80 186 5.0 10.0 0.00 0.00 0.00 87 1009.7
20260507030923 80 196 5.0 10.0 0.00 0.00 0.00 87 1009.6
20260507030421 80 2 4.0 8.0 0.00 0.00 0.00 87 1009.5
20260507025900 80 192 3.0 5.0 0.00 0.00 0.00 87 1009.6
20260507024737 80 181 3.0 6.0 0.00 0.00 0.00 87 1009.5
20260507024231 80 2 3.0 6.0 0.00 0.00 0.00 87 1009.6
20260507023728 80 167 3.0 6.0 0.00 0.00 0.00 87 1009.5
20260507023219 80 189 3.0 6.0 0.00 0.00 0.00 87 1009.5
20260507022709 80 156 4.0 9.0 0.00 0.00 0.00 87 1009.5
20260507022211 80 189 4.0 9.0 0.00 0.00 0.00 87 1009.4
20260507021650 80 161 6.0 11.0 0.00 0.00 0.00 86 1009.4
20260507021134 80 2 6.0 11.0 0.00 0.00 0.00 86 1009.4
20260507015951 80 194 8.0 11.0 0.00 0.00 0.00 86 1009.2
20260507015441 80 165 7.0 10.0 0.00 0.00 0.00 86 1009.1
20260507014940 80 194 6.0 10.0 0.00 0.00 0.00 86 1009.0
20260507014435 80 199 6.0 10.0 0.00 0.00 0.00 86 1008.9
20260507013914 80 2 6.0 10.0 0.00 0.00 0.00 86 1008.9
20260507013359 80 2 6.0 9.0 0.00 0.00 0.00 86 1008.8
20260507012856 80 188 6.0 9.0 0.00 0.00 0.00 86 1008.6
20260507012354 80 2 5.0 9.0 0.00 0.00 0.00 86 1008.6
20260507011843 80 161 4.0 9.0 0.00 0.00 0.00 85 1008.5
20260507011336 80 163 4.0 8.0 0.00 0.00 0.00 85 1008.6
20260507010823 81 177 4.0 8.0 0.00 0.00 0.00 85 1008.6
20260507005652 81 140 2.0 5.0 0.00 0.00 0.00 85 1008.3
20260507005132 81 204 2.0 5.0 0.00 0.00 0.00 85 1008.2
20260507004618 81 182 3.0 5.0 0.00 0.00 0.00 85 1008.2
20260507004123 81 2 3.0 6.0 0.00 0.00 0.00 85 1008.3
20260507003605 81 174 3.0 6.0 0.00 0.00 0.00 85 1008.2
20260507002443 81 140 3.0 6.0 0.00 0.00 0.00 84 1008.2
20260507001928 81 133 4.0 8.0 0.00 0.00 0.00 84 1008.2
20260507001408 81 199 4.0 8.0 0.00 0.00 0.00 84 1008.3
20260507000239 81 184 4.0 8.0 0.00 0.00 0.00 84 1008.2
20260506235716 81 2 4.0 7.0 0.00 0.00 0.00 84 1008.1
20260506235212 81 161 4.0 7.0 0.00 0.00 0.00 84 1008.1
20260506234719 81 2 4.0 7.0 0.00 0.00 0.00 84 1008.1
20260506234205 81 170 3.0 6.0 0.00 0.00 0.00 84 1008.1
20260506233656 82 100 3.0 5.0 0.00 0.00 0.00 84 1008.1
20260506232511 82 161 2.0 5.0 0.00 0.00 0.00 83 1007.9
20260506231949 82 164 3.0 5.0 0.00 0.00 0.00 83 1008.0
20260506231443 82 2 2.0 5.0 0.00 0.00 0.00 83 1008.0
20260506230940 82 176 2.0 6.0 0.00 0.00 0.00 83 1008.0
20260506230427 82 138 3.0 6.0 0.00 0.00 0.00 83 1008.0
20260506225920 82 188 3.0 8.0 0.00 0.00 0.00 83 1007.9
20260506225411 82 163 4.0 8.0 0.00 0.00 0.00 83 1007.8
20260506224914 82 174 4.0 8.0 0.00 0.00 0.00 83 1007.7
20260506223753 82 2 3.0 8.0 0.00 0.00 0.00 83 1007.8
20260506223234 82 2 3.0 8.0 0.00 0.00 0.00 83 1007.8
20260506222725 82 165 4.0 8.0 0.00 0.00 0.00 83 1007.7
20260506222222 82 173 4.0 8.0 0.00 0.00 0.00 82 1007.8
20260506221709 82 157 3.0 7.0 0.00 0.00 0.00 83 1007.8
20260506221201 82 171 3.0 8.0 0.00 0.00 0.00 83 1007.9
20260506220706 82 159 4.0 8.0 0.00 0.00 0.00 82 1007.8
20260506215540 82 188 5.0 9.0 0.00 0.00 0.00 83 1007.8
20260506215044 82 199 4.0 9.0 0.00 0.00 0.00 83 1007.9
20260506214550 82 117 4.0 9.0 0.00 0.00 0.00 83 1007.9
20260506214056 82 200 5.0 8.0 0.00 0.00 0.00 83 1008.0
20260506213538 82 150 5.0 8.0 0.00 0.00 0.00 83 1008.1
20260506213029 82 2 5.0 10.0 0.00 0.00 0.00 83 1008.1
20260506212516 82 161 6.0 10.0 0.00 0.00 0.00 83 1008.1
20260506211329 82 150 6.0 12.0 0.00 0.00 0.00 83 1008.2
20260506210821 82 214 6.0 12.0 0.00 0.00 0.00 82 1008.2
20260506210319 82 155 6.0 9.0 0.00 0.00 0.00 83 1008.1
20260506205802 82 150 5.0 9.0 0.00 0.00 0.00 83 1008.3
20260506205244 82 143 5.0 8.0 0.00 0.00 0.00 83 1008.3
20260506204726 82 185 5.0 11.0 0.00 0.00 0.00 84 1008.2
20260506204227 82 136 5.0 11.0 0.00 0.00 0.00 84 1008.3
20260506203706 82 128 6.0 11.0 0.00 0.00 0.00 84 1008.3
20260506202532 81 143 6.0 10.0 0.00 0.00 0.00 83 1008.3
20260506202025 81 150 6.0 10.0 0.00 0.00 0.00 83 1008.3
20260506201510 82 150 6.0 10.0 0.00 0.00 0.00 83 1008.5
20260506201001 82 169 5.0 9.0 0.00 0.00 0.00 84 1008.6
20260506200446 82 104 5.0 11.0 0.00 0.00 0.00 84 1008.6
20260506195946 82 157 5.0 11.0 0.00 0.00 0.00 84 1008.8
20260506195425 82 112 5.0 11.0 0.00 0.00 0.00 84 1008.8
20260506194917 82 92 5.0 11.0 0.00 0.00 0.00 84 1008.9
20260506194357 82 125 5.0 9.0 0.00 0.00 0.00 84 1009.0
20260506193848 82 111 5.0 9.0 0.00 0.00 0.00 84 1009.0
20260506193331 82 167 5.0 9.0 0.00 0.00 0.00 84 1009.1
20260506192813 82 2 5.0 9.0 0.00 0.00 0.00 84 1009.1
20260506192300 82 143 5.0 10.0 0.00 0.00 0.00 84 1009.2
20260506191803 82 165 5.0 10.0 0.00 0.00 0.00 84 1009.2
20260506191241 82 206 5.0 10.0 0.00 0.00 0.00 84 1009.4
20260506190725 82 194 5.0 10.0 0.00 0.00 0.00 84 1009.4
20260506185549 82 136 5.0 9.0 0.00 0.00 0.00 84 1009.4
20260506185050 82 174 5.0 9.0 0.00 0.00 0.00 84 1009.5
20260506184535 82 144 5.0 9.0 0.00 0.00 0.00 85 1009.6
20260506184015 82 152 4.0 9.0 0.00 0.00 0.00 85 1009.6
20260506183500 82 157 3.0 6.0 0.00 0.00 0.00 85 1009.6
20260506182333 81 179 1.0 5.0 0.00 0.00 0.00 85 1009.8
20260506181830 81 173 0.0 4.0 0.00 0.00 0.00 85 1009.8
20260506181322 81 130 0.0 3.0 0.00 0.00 0.00 85 1009.9
20260506180138 81 66 1.0 3.0 0.00 0.00 0.00 85 1009.9
20260506175619 81 87 1.0 3.0 0.00 0.00 0.00 85 1010.0
20260506175111 81 219 0.0 2.0 0.00 0.00 0.00 85 1009.9
20260506174604 81 116 0.0 2.0 0.00 0.00 0.00 85 1009.9
20260506173417 82 103 0.0 3.0 0.00 0.00 0.00 85 1010.2
20260506172920 82 80 0.0 4.0 0.00 0.00 0.00 85 1010.2
20260506172418 82 163 0.0 4.0 0.00 0.00 0.00 86 1010.3
20260506171915 82 55 1.0 4.0 0.00 0.00 0.00 86 1010.1
20260506171418 82 133 0.0 4.0 0.00 0.00 0.00 86 1010.1
20260506170924 81 179 0.0 4.0 0.00 0.00 0.00 86 1010.1
20260506170428 81 155 0.0 4.0 0.00 0.00 0.00 86 1010.2
20260506165930 81 210 0.0 6.0 0.00 0.00 0.00 86 1010.1
20260506164751 81 117 2.0 6.0 0.00 0.00 0.00 87 1010.1
20260506164229 81 101 2.0 6.0 0.00 0.00 0.00 87 1010.0
20260506163709 81 140 3.0 5.0 0.00 0.00 0.00 87 1010.2
20260506163212 81 151 3.0 5.0 0.00 0.00 0.00 87 1010.2
20260506162706 80 2 3.0 7.0 0.00 0.00 0.00 87 1010.2
20260506162213 80 150 3.0 7.0 0.00 0.00 0.00 87 1010.1
20260506161717 80 161 3.0 7.0 0.00 0.00 0.00 87 1010.1
20260506161222 80 161 4.0 7.0 0.00 0.00 0.00 87 1010.0
20260506160042 80 145 2.0 6.0 0.00 0.00 0.00 87 1009.9
20260506154937 80 144 3.0 6.0 0.00 0.00 0.00 87 1009.8
20260506154439 80 167 3.0 8.0 0.00 0.00 0.00 87 1009.7
20260506153928 80 2 4.0 8.0 0.00 0.00 0.00 88 1009.8
20260506153412 80 146 4.0 9.0 0.00 0.00 0.00 88 1009.6
20260506152914 80 162 4.0 9.0 0.00 0.00 0.00 88 1009.5
20260506152413 80 177 5.0 9.0 0.00 0.00 0.00 88 1009.5